{"data":{"norad_id":68599,"intl_designator":"2026-072AC","name":"KUIPER-00304","alt_names":[],"object_type":"PAYLOAD","status":"ACTIVE","operator":null,"country":"US","launch_date":"2026-04-04","launch_site_code":"AFETR","launch_vehicle":null,"mission":null,"orbit_class":"UNKNOWN","rcs_meters":null,"size_class":null,"mass_kg":null,"dimensions":null,"purposes":[],"wikipedia_slug":null,"has_3d_model":false,"image_url":null,"decayed_at":null,"tle_current":{"epoch":"2026-05-24T19:57:02.115072Z","epoch_age_seconds":85551,"freshness":"FRESH","line1":"1 68599U 26072AC  26144.83127448  .00024579  00000+0  66908-3 0  9996","line2":"2 68599  51.8672 290.1063 0010169 300.6350  59.3633 15.37322622  7787","mean_motion":15.37322622,"eccentricity":0.0010169,"inclination_deg":51.8672,"raan_deg":290.1063,"arg_perigee_deg":300.635,"mean_anomaly_deg":59.3633,"bstar":0.00066908,"rev_number":778,"period_min":93.669343011853,"perigee_km":447.0827255399,"apogee_km":460.9779875096,"semimajor_km":6832.1673565247,"source":"CELESTRAK","updated_at":"2026-05-25T13:38:07.955230Z"}}}